When you browse on this site, cookies collect data to enhance your experience and personalize the content and advertising you see.
Visit our Privacy Policy to learn more. By continuing to use the site, you agree to this use of cookies and data.
  • In Czech Republic
  • List of Countries
  • For 7 days
  • Water Temperature
  • Weather Map
  • Weather Widgets
  • user-avatar
    Login

    Hourly Weather Dinagepoor

    Today, 23 September, Monday

    Time Temperature Precipitation Wind Pressure Humidity
    00:00 +28°C° 1.3 mm 1 mps 755 mmHg 86%
    01:00 +28°C° 1.3 mm 1 mps 754 mmHg 87%
    02:00 +28°C° 1.3 mm 1 mps 754 mmHg 88%
    03:00 +27°C° 1.3 mm 2 mps 754 mmHg 89%
    04:00 +27°C° 1.5 mm 1 mps 754 mmHg 90%
    05:00 +27°C° 1.5 mm 1 mps 754 mmHg 90%
    06:00 +27°C° 1.5 mm 1 mps 755 mmHg 91%
    07:00 +28°C° 0.4 mm 1 mps 755 mmHg 87%
    08:00 +29°C° 0.4 mm 1 mps 756 mmHg 84%
    09:00 +30°C° 0.4 mm 1 mps 756 mmHg 80%
    10:00 +31°C° 0.4 mm 1 mps 756 mmHg 74%
    11:00 +32°C° 0.4 mm 1 mps 755 mmHg 67%
    12:00 +34°C° 0.4 mm 1 mps 755 mmHg 61%
    13:00 +35°C° 0.5 mm 2 mps 754 mmHg 60%
    14:00 +35°C° 0.5 mm 2 mps 753 mmHg 58%
    15:00 +36°C° 0.5 mm 2 mps 753 mmHg 56%
    16:00 +35°C° 0.1 mm 2 mps 753 mmHg 61%
    17:00 +34°C° 0.1 mm 2 mps 753 mmHg 66%
    18:00 +32°C° 0.1 mm 2 mps 753 mmHg 71%
    19:00 +31°C° 1 mm 2 mps 754 mmHg 74%
    20:00 +30°C° 1 mm 3 mps 755 mmHg 78%
    21:00 +29°C° 1 mm 3 mps 755 mmHg 82%
    22:00 +29°C° 0.3 mm 3 mps 755 mmHg 83%
    23:00 +29°C° 0.3 mm 3 mps 755 mmHg 84%

    Tomorrow, 24 September, Tuesday

    Time Temperature Precipitation Wind Pressure Humidity
    00:00 +28°C° 0.3 mm 2 mps 756 mmHg 84%
    01:00 +28°C° 0.1 mm 2 mps 755 mmHg 85%
    02:00 +28°C° 0.1 mm 2 mps 755 mmHg 86%
    03:00 +28°C° 0.1 mm 2 mps 755 mmHg 87%
    04:00 +28°C° 0.7 mm 2 mps 755 mmHg 88%
    05:00 +28°C° 0.7 mm 2 mps 755 mmHg 88%
    06:00 +28°C° 0.7 mm 2 mps 755 mmHg 89%
    07:00 +28°C° 1.9 mm 2 mps 756 mmHg 89%
    08:00 +28°C° 1.9 mm 3 mps 756 mmHg 89%
    09:00 +28°C° 1.9 mm 4 mps 756 mmHg 89%
    10:00 +29°C° 1 mm 4 mps 756 mmHg 88%
    11:00 +29°C° 1 mm 4 mps 756 mmHg 86%
    12:00 +29°C° 1 mm 4 mps 756 mmHg 84%
    13:00 +29°C° 0.5 mm 4 mps 755 mmHg 85%
    14:00 +29°C° 0.5 mm 4 mps 755 mmHg 85%
    15:00 +29°C° 0.5 mm 4 mps 754 mmHg 85%
    16:00 +28°C° 0.2 mm 4 mps 754 mmHg 87%
    17:00 +28°C° 0.2 mm 4 mps 755 mmHg 88%
    18:00 +28°C° 0.2 mm 3 mps 755 mmHg 90%
    19:00 +27°C° 1.3 mm 4 mps 756 mmHg 91%
    20:00 +27°C° 1.3 mm 4 mps 757 mmHg 92%
    21:00 +27°C° 1.3 mm 4 mps 758 mmHg 93%
    22:00 +27°C° 1.1 mm 4 mps 757 mmHg 93%
    23:00 +27°C° 1.1 mm 4 mps 757 mmHg 94%

    Day after tomorrow, 25 September, Wednesday

    Time Temperature Precipitation Wind Pressure Humidity
    00:00 +26°C° 1.1 mm 3 mps 757 mmHg 94%
    01:00 +26°C° 1.4 mm 3 mps 757 mmHg 95%
    02:00 +26°C° 1.4 mm 3 mps 757 mmHg 95%
    03:00 +26°C° 1.4 mm 3 mps 757 mmHg 96%
    04:00 +26°C° 0.8 mm 3 mps 757 mmHg 96%
    05:00 +26°C° 0.8 mm 3 mps 757 mmHg 96%
    06:00 +26°C° 0.8 mm 3 mps 757 mmHg 96%
    07:00 +26°C° 0.5 mm 3 mps 758 mmHg 95%
    08:00 +26°C° 0.5 mm 3 mps 759 mmHg 94%
    09:00 +27°C° 0.5 mm 3 mps 759 mmHg 93%
    10:00 +27°C° 0.2 mm 3 mps 759 mmHg 90%
    11:00 +28°C° 0.2 mm 3 mps 759 mmHg 88%
    12:00 +28°C° 0.2 mm 4 mps 759 mmHg 86%
    13:00 +29°C° 0.2 mm 4 mps 758 mmHg 84%
    14:00 +29°C° 0.2 mm 3 mps 757 mmHg 82%
    15:00 +29°C° 0.2 mm 3 mps 757 mmHg 80%
    16:00 +29°C° 0 mm 3 mps 757 mmHg 83%
    17:00 +28°C° 0 mm 2 mps 757 mmHg 85%
    18:00 +28°C° 0 mm 2 mps 757 mmHg 87%
    19:00 +27°C° 0 mm 2 mps 758 mmHg 88%
    20:00 +27°C° 0 mm 2 mps 758 mmHg 89%
    21:00 +27°C° 0 mm 2 mps 759 mmHg 89%
    22:00 +27°C° 0.3 mm 2 mps 759 mmHg 89%
    23:00 +27°C° 0.3 mm 2 mps 759 mmHg 90%

    26 September, Thursday

    Time Temperature Precipitation Wind Pressure Humidity
    00:00 +27°C° 0.3 mm 1 mps 759 mmHg 90%
    01:00 +26°C° 0.7 mm 1 mps 759 mmHg 91%
    02:00 +26°C° 0.7 mm 1 mps 758 mmHg 92%
    03:00 +26°C° 0.7 mm 1 mps 758 mmHg 92%
    04:00 +26°C° 0.3 mm 1 mps 758 mmHg 93%
    05:00 +26°C° 0.3 mm 1 mps 758 mmHg 93%
    06:00 +25°C° 0.3 mm 1 mps 758 mmHg 93%
    07:00 +27°C° 0.3 mm 2 mps 759 mmHg 89%
    08:00 +28°C° 0.3 mm 2 mps 759 mmHg 85%
    09:00 +29°C° 0.3 mm 2 mps 759 mmHg 81%
    10:00 +30°C° 1.5 mm 2 mps 759 mmHg 77%
    11:00 +31°C° 1.5 mm 2 mps 758 mmHg 73%
    12:00 +31°C° 1.5 mm 2 mps 758 mmHg 69%
    13:00 +32°C° 0.8 mm 2 mps 757 mmHg 68%
    14:00 +32°C° 0.8 mm 2 mps 756 mmHg 67%
    15:00 +32°C° 0.8 mm 2 mps 756 mmHg 65%
    16:00 +31°C° 0.2 mm 2 mps 756 mmHg 71%
    17:00 +30°C° 0.2 mm 2 mps 756 mmHg 76%
    18:00 +29°C° 0.2 mm 2 mps 756 mmHg 82%
    19:00 +28°C° 0.1 mm 2 mps 756 mmHg 84%
    20:00 +28°C° 0.1 mm 2 mps 757 mmHg 87%
    21:00 +27°C° 0.1 mm 2 mps 758 mmHg 89%
    22:00 +27°C° 0 mm 2 mps 757 mmHg 89%
    23:00 +26°C° 0 mm 2 mps 757 mmHg 89%

    27 September, Friday

    Time Temperature Precipitation Wind Pressure Humidity
    00:00 +26°C° 0 mm 2 mps 757 mmHg 89%
    01:00 +26°C° 0 mm 2 mps 757 mmHg 90%
    02:00 +26°C° 0 mm 1 mps 757 mmHg 90%
    03:00 +26°C° 0 mm 1 mps 756 mmHg 90%
    04:00 +26°C° 0 mm 1 mps 756 mmHg 90%
    05:00 +25°C° 0 mm 1 mps 756 mmHg 90%
    06:00 +23°C° 0 mm 0 mps 757 mmHg 91%
    07:00 +27°C° 0 mm 1 mps 757 mmHg 85%
    08:00 +28°C° 0 mm 1 mps 758 mmHg 80%
    09:00 +29°C° 0 mm 1 mps 758 mmHg 74%
    10:00 +30°C° 0 mm 1 mps 758 mmHg 71%
    11:00 +32°C° 0 mm 1 mps 757 mmHg 67%
    12:00 +33°C° 0 mm 1 mps 756 mmHg 63%
    13:00 +33°C° 0 mm 1 mps 756 mmHg 63%
    14:00 +33°C° 0 mm 1 mps 755 mmHg 62%
    15:00 +33°C° 0 mm 1 mps 754 mmHg 62%
    16:00 +32°C° 0 mm 1 mps 754 mmHg 65%
    17:00 +32°C° 0 mm 1 mps 754 mmHg 67%
    18:00 +29°C° 0 mm 0 mps 754 mmHg 70%
    19:00 +29°C° 0 mm 0 mps 754 mmHg 72%
    20:00 +28°C° 0 mm 0 mps 755 mmHg 73%
    21:00 +28°C° 0 mm 0 mps 755 mmHg 74%
    22:00 +27°C° 0 mm 0 mps 755 mmHg 76%
    23:00 +29°C° 0 mm 1 mps 755 mmHg 78%

    28 September, Saturday

    Time Temperature Precipitation Wind Pressure Humidity
    00:00 +28°C° 0 mm 1 mps 755 mmHg 80%
    01:00 +28°C° 0 mm 1 mps 754 mmHg 81%
    02:00 +26°C° 0 mm 0 mps 754 mmHg 82%
    03:00 +26°C° 0 mm 0 mps 754 mmHg 83%
    04:00 +27°C° 0 mm 1 mps 754 mmHg 85%
    05:00 +27°C° 0 mm 1 mps 754 mmHg 86%
    06:00 +27°C° 0 mm 1 mps 754 mmHg 87%
    07:00 +28°C° 0 mm 1 mps 754 mmHg 83%
    08:00 +29°C° 0 mm 2 mps 755 mmHg 79%
    09:00 +31°C° 0 mm 2 mps 755 mmHg 75%
    10:00 +32°C° 0.2 mm 2 mps 755 mmHg 70%
    11:00 +34°C° 0.2 mm 3 mps 755 mmHg 65%
    12:00 +35°C° 0.2 mm 3 mps 754 mmHg 60%
    13:00 +35°C° 0 mm 3 mps 754 mmHg 60%
    14:00 +35°C° 0 mm 3 mps 753 mmHg 59%
    15:00 +35°C° 0 mm 3 mps 752 mmHg 59%
    16:00 +34°C° 0.3 mm 3 mps 752 mmHg 65%
    17:00 +31°C° 0.3 mm 3 mps 753 mmHg 70%
    18:00 +30°C° 0.3 mm 3 mps 753 mmHg 76%
    19:00 +30°C° 0.2 mm 3 mps 754 mmHg 79%
    20:00 +29°C° 0.2 mm 3 mps 755 mmHg 81%
    21:00 +28°C° 0.2 mm 3 mps 755 mmHg 84%
    22:00 +28°C° 0 mm 2 mps 755 mmHg 85%
    23:00 +27°C° 0 mm 2 mps 755 mmHg 86%
    Show more